Tracking 22223 objects as of 26-Jan-2021
HD Live streaming from Space Station
objects crossing your sky now

INSAT 2A

Track INSAT 2A now!
INSAT 2A is classified as:


NORAD ID: 22027
Int'l Code: 1992-041A
Perigee: 35,786.5 km
Apogee: 35,834.2 km
Inclination: 14.8 °
Period: 1,436.9 minutes
Semi major axis: 42181 km
RCS: 1.9952 m2 (large)
Launch date: July 9, 1992
Source: India (IND)
Launch site: FRENCH GUIANA (FRGUI)
aabbcc
Your satellite tracking list
Your tracking list is empty




NASA's NSSDC Master Catalog

Two Line Element Set (TLE):
1 22027U 92041A   21025.64903562 -.00000004  00000-0  00000-0 0  9999
2 22027  14.8403   7.5001 0005656 279.0168  76.0460  1.00212528104327
Source of the keplerian elements: AFSPC